Tarawa Terrace, NC

10:40 PM EDT on August 31, 2016 (GMT -0400)
New River Marine Corps Air Station

Weather History for KNCA - May, 2013

Change the Weather History Date:

Wednesday, May 22, 2013

  Actual Average Record
Temperature  
Mean Temperature 76 °F -  
Max Temperature 82 °F 79 °F 91 °F (2004)
Min Temperature 69 °F 59 °F 51 °F (1997)
Cooling Degree Days 10    
Growing Degree Days 26 (Base 50)    
Moisture  
Dew Point 68 °F    
Average Humidity 79    
Maximum Humidity 97    
Minimum Humidity 58    
Precipitation  
Precipitation 0.00 in - - ()
Sea Level Pressure  
Sea Level Pressure 30.04 in    
Wind  
Wind Speed 7 mph (South)    
Max Wind Speed 15 mph    
Max Gust Speed 26 mph    
Visibility 10 miles    
Events      
Averages and records for this station are not official NWS values.
T = Trace of Precipitation, MM = Missing Value Source: NWS Daily Summary

Daily Weather History Graph

Daily Weather History Graph

Search for Another Location

Airport or City:

Trip Planner

Search our weather history database for the weather conditions in past years. The results will help you decide how hot, cold, wet, or windy it might be!

Date:

Astronomy

May. 22, 2013 Rise Set
Actual Time 6:02 AM EDT 8:11 PM EDT
Civil Twilight 5:33 AM EDT 8:39 PM EDT
Nautical Twilight 4:58 AM EDT 9:14 PM EDT
Astronomical Twilight 4:21 AM EDT 9:52 PM EDT
Moon 5:36 PM EDT (5/22) 3:57 AM EDT (5/22)
Length of Visible Light 15h 06m
Length of Day
14h 09m
Waxing Gibbous, 91% of the Moon is Illuminated
May 22
Waxing Gibbous
May 25
Full
May 31
Last Quarter
Jun 8
New
Jun 16
First Quarter

Hourly Weather History & Observations

Time (EDT) Temp. Heat Index Dew Point Humidity Pressure Visibility Wind Dir Wind Speed Gust Speed Precip Events Conditions
12:56 AM 70.0 °F - 69.1 °F 97% 30.06 in 10.0 mi SSW 4.6 mph - N/A   Clear
1:56 AM 70.0 °F - 69.1 °F 97% 30.05 in 10.0 mi SSW 4.6 mph - N/A   Clear
2:56 AM 70.0 °F - 69.1 °F 97% 30.05 in 8.0 mi South 3.5 mph - N/A   Mostly Cloudy
3:56 AM 70.0 °F - 69.1 °F 97% 30.05 in 6.0 mi SSW 3.5 mph - N/A   Mostly Cloudy
4:56 AM 70.0 °F - 69.1 °F 97% 30.04 in 8.0 mi South 4.6 mph - N/A   Overcast
5:56 AM 70.0 °F - 68.0 °F 93% 30.04 in 10.0 mi South 3.5 mph - N/A   Overcast
6:56 AM 69.1 °F - 66.9 °F 93% 30.04 in 10.0 mi South 3.5 mph - N/A   Mostly Cloudy
7:56 AM 73.0 °F - 66.9 °F 81% 30.06 in 10.0 mi SSW 4.6 mph - N/A   Mostly Cloudy
8:56 AM 75.9 °F - 70.0 °F 82% 30.07 in 10.0 mi SSE 9.2 mph - N/A   Mostly Cloudy
9:56 AM 79.0 °F - 70.0 °F 74% 30.07 in 10.0 mi South 11.5 mph - N/A   Mostly Cloudy
10:16 AM 78.8 °F - 69.8 °F 74% 30.06 in 10.0 mi South 8.1 mph - N/A   Mostly Cloudy
10:43 AM 80.6 °F 83.9 °F 69.8 °F 70% 30.07 in 10.0 mi South 12.7 mph 19.6 mph N/A   Mostly Cloudy
10:56 AM 79.0 °F - 69.1 °F 72% 30.08 in 10.0 mi South 10.4 mph - N/A   Mostly Cloudy
11:03 AM 80.6 °F 83.9 °F 69.8 °F 70% 30.07 in 10.0 mi South 9.2 mph - N/A   Mostly Cloudy
11:56 AM 81.0 °F 83.0 °F 66.0 °F 60% 30.06 in 10.0 mi South 12.7 mph 18.4 mph N/A   Mostly Cloudy
12:56 PM 82.0 °F 84.1 °F 66.0 °F 58% 30.06 in 7.0 mi South 13.8 mph 21.9 mph N/A   Partly Cloudy
1:56 PM 82.0 °F 84.1 °F 66.0 °F 58% 30.04 in 8.0 mi SSW 12.7 mph 21.9 mph N/A   Partly Cloudy
2:56 PM 82.0 °F 84.5 °F 66.9 °F 60% 30.03 in 10.0 mi South 12.7 mph 20.7 mph N/A   Clear
3:56 PM 80.1 °F 82.3 °F 66.9 °F 64% 30.03 in 10.0 mi South 11.5 mph 21.9 mph N/A   Scattered Clouds
4:56 PM 79.0 °F - 68.0 °F 69% 30.01 in 9.0 mi South 15.0 mph 26.5 mph N/A   Scattered Clouds
5:56 PM 78.1 °F - 66.0 °F 66% 30.00 in 10.0 mi South 12.7 mph 24.2 mph N/A   Clear
6:56 PM 77.0 °F - 66.9 °F 71% 30.00 in 10.0 mi South 11.5 mph 24.2 mph N/A   Partly Cloudy
7:56 PM 73.9 °F - 68.0 °F 82% 30.00 in 10.0 mi South 10.4 mph - N/A   Partly Cloudy
8:56 PM 73.0 °F - 69.1 °F 87% 30.01 in 10.0 mi South 10.4 mph - N/A   Clear
9:56 PM 73.0 °F - 70.0 °F 90% 30.03 in 10.0 mi South 6.9 mph - N/A   Clear
10:56 PM 72.0 °F - 70.0 °F 93% 30.03 in 10.0 mi South 6.9 mph - N/A   Clear
11:56 PM 72.0 °F - 70.0 °F 93% 30.02 in 10.0 mi South 5.8 mph - N/A   Clear